Wind_Speed
45 45 44 42 39 37 36 34 32 31 29 27 25 24 22 21 21 20 20 20 21 22 24 26 26 27 26 27 27 30 32 33 34 34 33 33 33 33
50 49 48 46 45 41 39 37 35 33 31 29 27 26 24 23 22 21 20 20 21 22 23 24 24 25 25 24 25 25 26 27 28 30 30 31 32 32
54 53 52 51 49 46 43 40 37 35 32 31 29 27 26 24 22 21 20 19 20 21 22 23 24 24 24 23 23 24 24 25 26 27 28 29 30 31
60 58 56 54 52 50 47 44 41 38 34 32 30 29 27 25 23 22 21 20 20 22 23 24 24 25 24 24 23 22 22 23 23 24 26 28 29 30
66 63 60 58 55 53 51 48 44 40 37 34 32 30 28 26 24 23 22 21 20 21 23 24 25 26 25 24 24 23 23 23 24 25 26 27 27 28
70 67 64 63 59 56 54 50 47 43 40 36 33 31 29 28 25 24 23 21 21 22 23 25 25 26 26 25 25 25 24 24 25 25 26 26 26 27
74 71 68 65 62 59 56 54 50 46 42 38 35 32 30 28 26 24 23 21 21 21 23 24 26 26 26 26 26 26 26 26 26 26 26 26 26 26
76 74 70 67 63 59 57 55 52 48 44 41 37 34 31 29 27 25 23 22 21 21 22 24 26 27 27 27 27 27 26 26 25 25 25 25 25 25
73 75 74 70 67 64 59 56 53 51 47 43 39 36 33 30 28 25 23 21 20 21 22 23 24 26 26 27 26 26 26 25 24 23 23 23 23 24
58 66 70 72 69 66 62 58 55 52 48 45 41 38 35 32 29 26 23 21 20 21 21 22 23 24 25 24 25 25 25 24 23 23 22 21 21 21
42 50 58 64 66 66 63 59 55 51 48 45 43 40 37 34 30 26 23 21 21 21 21 22 22 23 24 24 24 24 23 23 23 23 21 21 20 20
34 39 46 53 59 62 62 59 57 53 49 46 44 41 38 34 31 27 24 22 22 21 21 21 22 22 22 22 22 23 23 22 22 21 21 21 20 20
31 32 36 43 50 55 58 58 55 53 50 46 44 42 39 35 31 27 24 23 23 23 22 21 21 22 22 22 22 22 22 21 21 22 21 21 20 19
30 30 31 35 42 49 54 55 54 53 50 47 44 42 38 34 31 28 26 26 25 25 23 22 21 21 21 22 21 21 21 21 21 21 20 20 19 18
29 28 28 31 37 45 51 53 53 52 50 47 44 41 37 35 32 30 28 27 26 25 24 23 22 21 21 20 19 19 20 19 19 19 19 18 17 17
29 27 27 28 34 43 49 52 53 52 49 47 44 41 38 36 33 31 29 27 27 25 24 23 22 22 20 19 19 19 19 19 19 19 18 18 17 17
30 27 26 26 32 41 48 50 52 51 49 46 44 41 39 36 34 32 31 28 27 26 24 24 23 22 20 19 19 19 19 19 19 19 19 19 18 18
29 26 25 26 32 41 46 48 49 49 47 45 42 40 38 36 34 32 30 28 26 26 24 23 22 21 21 20 20 20 19 19 20 20 20 19 19 19
28 26 25 27 34 41 46 49 50 47 45 44 41 40 38 36 34 32 30 28 27 26 25 23 22 22 21 21 21 21 21 21 21 21 20 20 21 21
26 25 26 28 33 40 46 48 48 46 44 43 41 40 39 36 35 33 31 29 27 26 25 24 23 22 22 22 21 22 22 22 22 22 21 22 23 24
23 23 25 27 32 40 47 48 47 45 44 42 40 39 38 36 34 32 30 29 28 27 26 25 24 23 23 23 23 23 24 24 23 23 23 24 25 27
20 21 22 26 31 39 45 47 46 45 43 41 39 37 36 35 33 32 30 29 28 27 26 25 24 24 24 25 25 25 25 25 25 25 26 27 28 30
17 18 21 26 31 39 42 44 45 44 41 39 37 36 34 33 31 30 30 29 28 27 25 25 25 25 25 25 25 25 25 25 26 27 28 30 31 33
Wind_Direction
242 241 240 239 238 238 239 243 248 255 259 262 265 270 275 282 287 286 282 274 264 257 251 247 245 243 244 246 248 243 238 236 236 238 239 242 245 248
242 242 241 241 240 239 239 240 244 250 256 260 264 268 273 278 284 286 284 275 265 257 250 245 242 240 241 242 241 239 238 236 237 238 239 242 244 247
240 241 241 241 241 240 239 239 241 245 250 256 261 265 270 275 281 283 282 278 267 257 248 244 242 238 235 236 237 236 235 235 237 239 240 241 244 246
238 239 240 241 241 240 239 239 239 241 245 250 256 261 266 271 276 280 281 278 268 257 246 243 239 236 235 236 237 238 237 239 241 243 243 245 247 248
235 236 238 239 239 239 239 238 238 239 241 245 251 256 262 267 272 277 278 276 269 256 246 241 238 237 237 239 239 241 243 244 245 246 247 248 248 248
234 234 235 236 237 238 238 237 237 237 239 242 246 251 257 262 268 272 274 273 266 255 246 241 238 238 238 241 243 244 246 247 248 248 249 249 249 249
234 233 232 233 233 235 236 236 235 235 236 238 242 247 253 257 263 267 269 269 265 254 246 241 239 239 239 241 243 245 247 248 248 249 250 250 250 249
235 233 232 231 231 232 233 234 233 233 234 236 239 243 248 252 258 262 266 265 259 252 246 242 239 239 240 241 243 245 245 246 247 248 249 250 249 248
237 235 233 232 231 231 231 231 232 232 232 233 236 240 244 247 252 257 261 260 255 249 244 241 241 240 240 241 243 244 244 244 244 245 246 248 248 248
238 237 235 233 232 232 231 230 230 228 229 230 232 235 239 242 247 251 254 255 250 246 242 241 239 238 239 241 242 242 243 243 242 243 246 246 246 246
236 236 236 235 233 232 229 228 227 225 225 226 229 231 234 238 242 245 247 247 244 241 240 241 241 241 240 241 240 239 240 241 241 242 242 241 241 241
234 235 234 233 232 229 227 225 225 224 223 223 225 227 230 233 236 238 240 239 240 239 239 241 241 240 239 238 238 239 240 241 239 238 238 237 239 238
232 232 232 230 228 226 224 223 222 221 220 220 221 223 226 228 230 232 232 232 236 236 236 240 241 240 240 240 240 240 239 238 238 237 236 236 236 235
229 230 229 227 224 221 219 218 217 217 216 217 218 219 221 223 224 225 226 227 230 232 234 239 240 239 242 241 239 239 238 238 236 234 232 231 229 228
224 227 226 224 218 213 210 211 211 212 213 214 214 215 217 217 218 220 222 224 227 231 234 237 239 240 240 239 237 236 236 234 229 226 225 223 224 224
221 224 224 222 215 206 202 203 205 206 208 210 211 212 213 212 215 218 219 221 225 230 233 234 237 237 237 236 234 233 230 226 223 221 220 220 221 223
219 220 221 218 211 201 196 197 198 201 204 206 207 208 209 210 212 215 217 219 223 227 230 231 233 232 231 232 231 228 224 221 219 218 218 220 223 227
215 218 220 214 204 195 191 192 193 197 201 203 204 206 207 208 210 213 216 219 222 225 228 229 229 227 227 226 223 221 219 217 217 218 221 225 230 237
212 217 219 211 198 192 188 187 188 192 197 199 202 204 205 206 208 212 215 218 221 223 225 225 226 224 222 220 220 218 218 218 219 222 227 234 241 248
210 215 215 208 198 190 184 183 184 188 192 195 199 201 203 205 207 210 214 217 218 220 221 222 222 221 220 220 220 220 221 222 224 229 236 244 251 258
207 210 211 203 196 187 181 180 181 184 188 193 197 199 201 204 207 209 212 214 215 217 218 219 220 221 220 221 222 223 225 228 233 238 246 253 260 265
202 205 203 195 189 183 181 180 181 184 188 192 196 199 201 203 206 208 211 212 214 216 218 220 221 222 223 224 225 227 230 234 240 247 254 260 266 269
190 190 189 186 183 179 178 179 181 183 187 191 195 199 201 203 206 209 211 212 214 216 218 220 222 223 225 227 230 233 237 242 248 254 260 265 269 273
Height
5751 5756 5760 5763 5767 5771 5775 5778 5781 5783 5785 5787 5788 5788 5787 5786 5784 5783 5782 5782 5783 5784 5786 5788 5791 5794 5796 5798 5800 5802 5805 5809 5813 5817 5821 5824 5827 5829
5738 5743 5747 5752 5756 5761 5765 5769 5772 5775 5777 5779 5780 5781 5781 5780 5779 5778 5777 5777 5777 5778 5780 5782 5785 5788 5790 5792 5794 5796 5799 5803 5806 5810 5814 5817 5819 5822
5724 5729 5734 5739 5744 5749 5754 5759 5763 5767 5769 5771 5773 5774 5774 5774 5774 5773 5772 5771 5772 5773 5775 5777 5779 5782 5785 5787 5789 5791 5794 5797 5801 5804 5807 5810 5812 5814
5708 5714 5719 5725 5730 5736 5742 5747 5752 5757 5760 5763 5765 5767 5768 5768 5768 5767 5767 5766 5766 5767 5769 5771 5774 5777 5780 5782 5785 5787 5790 5792 5795 5798 5801 5803 5805 5807
5691 5697 5704 5710 5716 5722 5729 5735 5741 5746 5751 5754 5757 5759 5761 5762 5762 5761 5761 5761 5761 5762 5763 5766 5769 5772 5775 5777 5780 5782 5785 5787 5789 5792 5794 5796 5798 5800
5672 5680 5687 5694 5701 5707 5714 5721 5728 5735 5740 5745 5748 5751 5753 5755 5755 5755 5755 5755 5755 5756 5758 5760 5763 5767 5770 5772 5775 5777 5779 5781 5783 5785 5787 5789 5791 5793
5652 5661 5669 5677 5684 5691 5699 5707 5715 5723 5729 5735 5739 5743 5746 5748 5749 5749 5749 5749 5749 5750 5752 5755 5758 5761 5764 5767 5769 5771 5774 5775 5777 5779 5781 5782 5784 5786
5632 5641 5650 5660 5667 5676 5684 5693 5702 5710 5718 5724 5730 5734 5738 5740 5742 5742 5743 5743 5744 5746 5747 5750 5753 5755 5758 5761 5763 5765 5767 5769 5771 5773 5774 5776 5778 5780
5612 5622 5632 5641 5651 5660 5669 5678 5688 5697 5706 5714 5720 5725 5729 5732 5734 5736 5737 5738 5738 5740 5742 5744 5747 5750 5752 5755 5757 5759 5761 5763 5765 5767 5768 5770 5772 5774
5594 5603 5614 5624 5633 5643 5654 5665 5675 5685 5694 5703 5710 5715 5720 5724 5727 5729 5730 5732 5733 5735 5738 5740 5742 5744 5747 5749 5751 5753 5755 5757 5759 5761 5763 5765 5767 5769
5580 5588 5597 5607 5618 5630 5641 5652 5663 5673 5682 5691 5698 5705 5710 5715 5719 5722 5724 5726 5728 5730 5732 5735 5737 5739 5741 5743 5745 5747 5750 5752 5754 5756 5758 5760 5762 5764
5570 5576 5584 5592 5602 5614 5627 5639 5651 5662 5671 5680 5688 5695 5701 5706 5711 5715 5718 5720 5722 5725 5727 5730 5732 5734 5736 5738 5739 5742 5744 5746 5748 5751 5753 5755 5758 5760
5560 5565 5571 5578 5588 5600 5613 5627 5639 5650 5660 5670 5678 5685 5692 5698 5703 5708 5711 5714 5717 5720 5722 5725 5727 5729 5731 5733 5734 5737 5739 5741 5743 5746 5748 5751 5753 5755
5552 5557 5561 5567 5576 5587 5600 5614 5627 5639 5650 5660 5669 5677 5684 5691 5696 5700 5704 5708 5711 5714 5717 5719 5722 5724 5726 5728 5730 5732 5734 5736 5738 5741 5744 5746 5749 5751
5544 5549 5554 5559 5566 5576 5589 5602 5615 5628 5641 5651 5661 5669 5676 5683 5688 5693 5697 5701 5704 5708 5711 5714 5716 5718 5721 5723 5725 5727 5729 5731 5734 5737 5739 5742 5745 5747
5538 5543 5548 5552 5559 5567 5579 5592 5605 5619 5632 5643 5652 5660 5668 5674 5681 5686 5691 5695 5699 5702 5705 5708 5711 5713 5716 5718 5720 5722 5725 5727 5730 5733 5736 5738 5741 5743
5532 5537 5542 5547 5552 5560 5571 5584 5597 5611 5623 5634 5644 5652 5660 5668 5674 5680 5684 5689 5693 5697 5699 5703 5705 5708 5711 5713 5715 5718 5720 5723 5726 5729 5732 5734 5736 5738
5527 5532 5536 5541 5547 5555 5566 5578 5590 5604 5616 5627 5637 5646 5654 5661 5667 5673 5678 5682 5686 5690 5694 5697 5700 5703 5706 5709 5711 5713 5716 5719 5722 5725 5727 5730 5732 5733
5522 5527 5531 5536 5542 5551 5561 5573 5586 5599 5610 5621 5631 5640 5648 5655 5661 5667 5672 5676 5680 5684 5688 5691 5695 5698 5701 5704 5707 5709 5712 5715 5718 5720 5723 5725 5726 5728
5518 5523 5528 5532 5538 5546 5558 5569 5581 5594 5605 5615 5625 5634 5642 5649 5656 5661 5667 5671 5675 5679 5682 5686 5690 5693 5696 5700 5702 5705 5708 5711 5713 5715 5717 5719 5720 5721
5516 5521 5525 5530 5536 5545 5556 5567 5579 5590 5600 5611 5621 5629 5637 5644 5650 5656 5661 5666 5670 5674 5677 5681 5685 5689 5692 5696 5698 5701 5703 5706 5708 5710 5711 5712 5713 5713
5514 5519 5523 5529 5535 5545 5555 5566 5577 5588 5599 5609 5617 5626 5633 5640 5646 5651 5656 5661 5665 5668 5672 5676 5680 5684 5687 5690 5693 5696 5698 5700 5702 5703 5705 5705 5705 5705
5514 5519 5524 5530 5537 5546 5556 5567 5578 5588 5597 5607 5615 5623 5630 5636 5642 5647 5651 5656 5660 5664 5668 5672 5675 5679 5682 5685 5688 5690 5692 5694 5696 5697 5697 5697 5697 5697